This demonstration page uses our WeatherBlox Daily Observations layout. Learn more.

Left ArrowRight Arrow

39.01783, -85.05884

Hourly Observations for October 30, 2016

Temp ( °F °C ) Dew Point ( °F °C ) Humidity (%) Winds ( mph kmh ) Pressure ( in mb ) Visibility ( mi km ) Precip ( " mm )
12:52 am 00:52 Partly Cloudy 66 18.9 55 12.8 68 68 SSW 8 13 30.03 1017 10 16 0.00 0.00
1:52 am 01:52 Partly Cloudy 68 20 56 13.3 65 65 SW 8 13 30.03 1017 10 16 0.00 0.00
2:52 am 02:52 Mostly Cloudy 67 19.4 56 13.3 68 68 SW 7 11 30.03 1017 10 16 0.00 0.00
3:52 am 03:52 Partly Cloudy 65 18.3 55 12.8 70 70 SSW 6 9 30.03 1017 10 16 0.00 0.00
4:52 am 04:52 Partly Cloudy 63 17.2 55 12.8 76 76 SSW 6 9 30.01 1016 10 16 0.00 0.00
5:52 am 05:52 Partly Cloudy 63 17.2 55 12.8 76 76 SSW 7 11 30.00 1016 10 16 0.00 0.00
6:52 am 06:52 Partly Cloudy 63 17.2 55 12.8 76 76 SSW 8 13 30.01 1016 10 16 0.00 0.00
7:52 am 07:52 Partly Cloudy 61 16.1 55 12.8 81 81 SSW 7 11 30.00 1016 10 16 0.00 0.00
8:52 am 08:52 Mostly Cloudy 64 17.8 56 13.3 75 75 SW 9 15 30.01 1016 10 16 0.00 0.00
9:52 am 09:52 Mostly Cloudy 65 18.3 56 13.3 73 73 SSW 9 15 30.02 1017 10 16 0.00 0.00
10:52 am 10:52 Partly Cloudy 70 21.1 57 13.9 64 64 SW 8 13 30.02 1017 10 16 0.00 0.00
11:52 am 11:52 Mostly Sunny 73 22.8 58 14.4 59 59 W 10 17 30.02 1017 10 16 0.00 0.00
12:52 pm 12:52 Mostly Cloudy 75 23.9 59 15 58 58 WSW 9 15 30.01 1016 10 16 0.00 0.00
1:52 pm 13:52 Mostly Sunny 77 25 59 15 54 54 W 14 22 30.00 1016 10 16 0.00 0.00
2:52 pm 14:52 Partly Cloudy 78 25.6 59 15 52 52 W 10 17 29.98 1015 10 16 0.00 0.00
3:52 pm 15:52 Mostly Cloudy 76 24.4 59 15 56 56 W 14 22 29.99 1016 10 16 0.00 0.00
4:52 pm 16:52 Mostly Cloudy 75 23.9 59 15 58 58 NNW 14 22 30.00 1016 10 16 0.00 0.00
5:52 pm 17:52 Mostly Cloudy 66 18.9 59 15 78 78 N 16 26 30.04 1017 7 11 0.00 0.00
6:52 pm 18:52 Cloudy 61 16.1 55 12.8 81 81 N 16 26 30.07 1018 10 16 0.00 0.00
7:14 pm 19:14 Cloudy 61 16 54 12 77 77 NNE 15 24 30.09 1019 10 16 0.00 0.00
7:52 pm 19:52 Cloudy 58 14.4 55 12.8 90 90 N 14 22 30.11 1020 10 16 0.00 0.03
8:52 pm 20:52 Cloudy 58 14.4 54 12.2 87 87 NNE 16 26 30.13 1020 10 16 0.00 0.03
9:52 pm 21:52 Cloudy 57 13.9 52 11.1 83 83 NNE 14 22 30.14 1021 10 16 0.00 0.00
10:52 pm 22:52 Cloudy 56 13.3 51 10.6 84 84 NE 14 22 30.15 1021 10 16 0.00 0.00
11:11 pm 23:11 Cloudy 55 13 48 9 77 77 ENE 14 22 30.18 1022 10 16 0.00 0.00
11:52 pm 23:52 Cloudy 56 13.3 48 8.9 75 75 NE 13 20 30.15 1021 10 16 0.00 0.00

Powered by AerisWeather